Time,TemperatureF,DewpointF,PressureIn,WindDirection,WindDirectionDegrees,WindSpeedMPH,WindSpeedGustMPH,Humidity,HourlyPrecipIn,Conditions,Clouds,dailyrainin,SoftwareType,DateUTC
2017-03-30 00:06:00,37.4,32.0,30.21,ENE,70,8.0,-999.0,80,-99.99,,,0.01,weatherlink.com 1.10,2017-03-30 04:06:00,
2017-03-30 00:21:00,36.8,32.0,30.19,ENE,61,10.0,-999.0,83,-99.99,,,0.01,weatherlink.com 1.10,2017-03-30 04:21:00,
2017-03-30 00:36:00,36.4,32.0,30.18,ENE,77,10.0,-999.0,84,-99.99,,,0.02,weatherlink.com 1.10,2017-03-30 04:36:00,
2017-03-30 00:51:00,36.4,32.0,30.18,ENE,69,11.0,-999.0,84,-99.99,,,0.02,weatherlink.com 1.10,2017-03-30 04:51:00,
2017-03-30 01:06:00,36.2,32.0,30.16,ENE,72,8.0,-999.0,84,-99.99,,,0.02,weatherlink.com 1.10,2017-03-30 05:06:00,
2017-03-30 01:21:00,36.2,32.0,30.15,East,82,10.0,-999.0,84,-99.99,,,0.02,weatherlink.com 1.10,2017-03-30 05:21:00,
2017-03-30 01:36:00,36.2,32.0,30.14,ENE,63,12.0,-999.0,84,-99.99,,,0.02,weatherlink.com 1.10,2017-03-30 05:36:00,
2017-03-30 01:51:00,35.9,31.0,30.14,East,80,11.0,-999.0,81,-99.99,,,0.02,weatherlink.com 1.10,2017-03-30 05:51:00,
2017-03-30 02:06:00,35.8,31.0,30.14,ENE,71,11.0,-999.0,81,-99.99,,,0.02,weatherlink.com 1.10,2017-03-30 06:06:00,
2017-03-30 02:21:00,35.8,30.0,30.13,ENE,63,11.0,-999.0,80,-99.99,,,0.02,weatherlink.com 1.10,2017-03-30 06:21:00,
2017-03-30 02:36:00,35.7,30.0,30.11,ENE,69,12.0,-999.0,80,-99.99,,,0.02,weatherlink.com 1.10,2017-03-30 06:36:00,
2017-03-30 02:52:00,35.6,30.0,30.10,ENE,78,13.0,-999.0,81,-99.99,,,0.02,weatherlink.com 1.10,2017-03-30 06:52:00,
2017-03-30 03:07:00,35.5,31.0,30.10,ENE,58,11.0,-999.0,82,-99.99,,,0.02,weatherlink.com 1.10,2017-03-30 07:07:00,
2017-03-30 03:22:00,35.5,31.0,30.08,ENE,70,10.0,-999.0,83,-99.99,,,0.02,weatherlink.com 1.10,2017-03-30 07:22:00,
2017-03-30 03:37:00,35.5,31.0,30.07,ENE,73,12.0,-999.0,83,-99.99,,,0.02,weatherlink.com 1.10,2017-03-30 07:37:00,
2017-03-30 03:52:00,35.5,31.0,30.06,ENE,78,14.0,-999.0,83,-99.99,,,0.02,weatherlink.com 1.10,2017-03-30 07:52:00,
2017-03-30 04:07:00,35.6,31.0,30.06,ENE,70,10.0,-999.0,83,-99.99,,,0.02,weatherlink.com 1.10,2017-03-30 08:07:00,
2017-03-30 04:22:00,35.6,31.0,30.05,ENE,77,12.0,-999.0,84,-99.99,,,0.02,weatherlink.com 1.10,2017-03-30 08:22:00,
2017-03-30 04:37:00,35.6,31.0,30.03,ENE,57,14.0,-999.0,83,-99.99,,,0.02,weatherlink.com 1.10,2017-03-30 08:37:00,
2017-03-30 04:52:00,35.6,31.0,30.02,ENE,69,15.0,-999.0,84,-99.99,,,0.02,weatherlink.com 1.10,2017-03-30 08:52:00,
2017-03-30 05:07:00,35.8,31.0,30.01,ENE,77,10.0,-999.0,84,-99.99,,,0.02,weatherlink.com 1.10,2017-03-30 09:07:00,
2017-03-30 05:22:00,35.9,32.0,30.01,East,90,16.0,-999.0,85,-99.99,,,0.02,weatherlink.com 1.10,2017-03-30 09:22:00,
2017-03-30 05:37:00,35.8,32.0,30.00,ENE,75,8.0,-999.0,86,-99.99,,,0.02,weatherlink.com 1.10,2017-03-30 09:37:00,
2017-03-30 05:52:00,35.8,32.0,30.02,ESE,102,11.0,-999.0,87,-99.99,,,0.03,weatherlink.com 1.10,2017-03-30 09:52:00,
2017-03-30 06:07:00,35.6,32.0,30.02,ENE,72,7.0,-999.0,88,-99.99,,,0.06,weatherlink.com 1.10,2017-03-30 10:07:00,
2017-03-30 06:22:00,35.2,32.0,30.01,East,92,9.0,-999.0,89,-99.99,,,0.11,weatherlink.com 1.10,2017-03-30 10:22:00,
2017-03-30 06:37:00,35.1,33.0,30.02,ENE,59,6.0,-999.0,90,-99.99,,,0.17,weatherlink.com 1.10,2017-03-30 10:37:00,
2017-03-30 06:52:00,34.8,33.0,30.02,ENE,61,6.0,-999.0,91,-99.99,,,0.22,weatherlink.com 1.10,2017-03-30 10:52:00,
2017-03-30 07:07:00,34.6,33.0,30.01,ENE,67,12.0,-999.0,92,-99.99,,,0.26,weatherlink.com 1.10,2017-03-30 11:07:00,
2017-03-30 07:22:00,34.5,33.0,30.01,ENE,72,14.0,-999.0,92,-99.99,,,0.30,weatherlink.com 1.10,2017-03-30 11:22:00,
2017-03-30 07:37:00,34.6,33.0,30.01,East,86,8.0,-999.0,93,-99.99,,,0.34,weatherlink.com 1.10,2017-03-30 11:37:00,
2017-03-30 07:52:00,34.6,33.0,29.99,East,81,8.0,-999.0,93,-99.99,,,0.37,weatherlink.com 1.10,2017-03-30 11:52:00,
2017-03-30 08:08:00,34.7,33.0,29.99,East,86,10.0,-999.0,94,-99.99,,,0.40,weatherlink.com 1.10,2017-03-30 12:08:00,
2017-03-30 08:22:00,34.8,33.0,29.98,East,85,12.0,-999.0,94,-99.99,,,0.43,weatherlink.com 1.10,2017-03-30 12:22:00,
2017-03-30 08:38:00,35.0,34.0,29.97,ENE,71,11.0,-999.0,94,-99.99,,,0.46,weatherlink.com 1.10,2017-03-30 12:38:00,
2017-03-30 08:52:00,35.2,34.0,29.97,East,81,11.0,-999.0,94,-99.99,,,0.48,weatherlink.com 1.10,2017-03-30 12:52:00,
2017-03-30 09:07:00,35.4,34.0,29.96,ENE,69,20.0,-999.0,94,-99.99,,,0.49,weatherlink.com 1.10,2017-03-30 13:07:00,
2017-03-30 09:23:00,35.8,34.0,29.95,East,96,22.0,-999.0,94,-99.99,,,0.50,weatherlink.com 1.10,2017-03-30 13:23:00,
2017-03-30 09:38:00,36.1,35.0,29.95,East,97,15.0,-999.0,94,-99.99,,,0.51,weatherlink.com 1.10,2017-03-30 13:38:00,
2017-03-30 09:53:00,36.5,35.0,29.93,East,82,14.0,-999.0,94,-99.99,,,0.53,weatherlink.com 1.10,2017-03-30 13:53:00,
2017-03-30 10:08:00,36.6,35.0,29.92,ENE,76,22.0,-999.0,94,-99.99,,,0.54,weatherlink.com 1.10,2017-03-30 14:08:00,
2017-03-30 10:23:00,36.9,35.0,29.91,East,94,18.0,-999.0,94,-99.99,,,0.56,weatherlink.com 1.10,2017-03-30 14:23:00,
2017-03-30 10:38:00,37.1,36.0,29.90,ENE,69,13.0,-999.0,94,-99.99,,,0.57,weatherlink.com 1.10,2017-03-30 14:38:00,
2017-03-30 10:53:00,37.2,36.0,29.90,East,96,20.0,-999.0,94,-99.99,,,0.59,weatherlink.com 1.10,2017-03-30 14:53:00,
2017-03-30 11:08:00,37.4,36.0,29.89,East,92,16.0,-999.0,94,-99.99,,,0.61,weatherlink.com 1.10,2017-03-30 15:08:00,
2017-03-30 11:23:00,37.5,36.0,29.89,East,83,13.0,-999.0,94,-99.99,,,0.61,weatherlink.com 1.10,2017-03-30 15:23:00,
2017-03-30 11:38:00,37.6,36.0,29.89,East,84,13.0,-999.0,94,-99.99,,,0.62,weatherlink.com 1.10,2017-03-30 15:38:00,
2017-03-30 11:53:00,37.7,36.0,29.88,East,85,13.0,-999.0,94,-99.99,,,0.63,weatherlink.com 1.10,2017-03-30 15:53:00,
2017-03-30 12:08:00,38.0,37.0,29.86,East,88,11.0,-999.0,94,-99.99,,,0.64,weatherlink.com 1.10,2017-03-30 16:08:00,
2017-03-30 12:23:00,37.9,36.0,29.86,ENE,74,12.0,-999.0,94,-99.99,,,0.64,weatherlink.com 1.10,2017-03-30 16:23:00,
2017-03-30 12:38:00,37.9,36.0,29.86,East,86,14.0,-999.0,94,-99.99,,,0.66,weatherlink.com 1.10,2017-03-30 16:38:00,
2017-03-30 12:53:00,37.9,36.0,29.87,East,80,17.0,-999.0,94,-99.99,,,0.67,weatherlink.com 1.10,2017-03-30 16:53:00,
2017-03-30 13:08:00,37.9,36.0,29.86,East,85,12.0,-999.0,94,-99.99,,,0.67,weatherlink.com 1.10,2017-03-30 17:08:00,
2017-03-30 13:23:00,38.0,37.0,29.85,ENE,78,13.0,-999.0,94,-99.99,,,0.67,weatherlink.com 1.10,2017-03-30 17:23:00,